UAE7DC OMDB-YPPH

Flight info

Callsign UAE7DC
Flight time N/A
Altitude 35000
Route ANVIX L223 TARDI N629 GIDAN P570 KITAL L894 BIBGO DCT LAVOX/N0490F370 DCT KADAP DCT 0500S08730E DCT BEBIM DCT 15S100E/N0479F390 18S105E DCT WONSA DCT CAR B469 TOPIR/N0477F400 L514 AVPAL Q38 JULIM
Aircraft A388/J-SADE2E3FGHIJ3J4J5M1RWXY/LB1D1

Departure

Time N/A
Airport Dubai International Airport (OMDB)

Arrival

Time 2026-05-04 04:50
Airport Perth International Airport (YPPH)
Time Latitude Longitude Altitude Speed Heading
2026-05-03 20:15 15.87790 64.09943 34856 ft 518 kts 139°
2026-05-03 20:15 15.82251 64.14678 34851 ft 518 kts 140°
2026-05-03 20:16 15.76690 64.19430 34851 ft 518 kts 140°
2026-05-03 20:16 15.71128 64.24178 34852 ft 517 kts 139°
2026-05-03 20:17 15.65563 64.28926 34848 ft 517 kts 139°
2026-05-03 20:17 15.60008 64.33661 34853 ft 516 kts 140°
2026-05-03 20:18 15.54455 64.38391 34849 ft 516 kts 140°
2026-05-03 20:18 15.48902 64.43118 34839 ft 516 kts 140°
2026-05-03 20:19 15.43351 64.47840 34856 ft 516 kts 140°
2026-05-03 20:19 15.37843 64.52523 34852 ft 515 kts 140°
2026-05-03 20:20 15.32301 64.57230 34848 ft 515 kts 140°
2026-05-03 20:20 15.26749 64.61943 34846 ft 515 kts 140°
2026-05-03 20:21 15.21205 64.66646 34850 ft 515 kts 140°
2026-05-03 20:21 15.15654 64.71351 34868 ft 514 kts 140°
2026-05-03 20:22 15.10107 64.76049 34864 ft 514 kts 140°
2026-05-03 20:22 15.04598 64.80712 34852 ft 514 kts 140°
2026-05-03 20:23 14.99056 64.85400 34850 ft 514 kts 140°
2026-05-03 20:23 14.93516 64.90083 34852 ft 514 kts 140°
2026-05-03 20:24 14.87984 64.94756 34862 ft 513 kts 140°
2026-05-03 20:24 14.82452 64.99426 34873 ft 512 kts 140°
2026-05-03 20:25 14.76924 65.04088 34855 ft 512 kts 140°
2026-05-03 20:25 14.71411 65.08736 34866 ft 511 kts 140°
2026-05-03 20:26 14.65932 65.13353 34862 ft 511 kts 140°
2026-05-03 20:26 14.60423 65.17991 34851 ft 511 kts 140°
2026-05-03 20:27 14.54920 65.22618 34860 ft 510 kts 140°
2026-05-03 20:27 14.49411 65.27244 34861 ft 510 kts 140°
2026-05-03 20:28 14.43908 65.31865 34853 ft 510 kts 140°
2026-05-03 20:28 14.38410 65.36479 34855 ft 509 kts 140°
2026-05-03 20:29 14.32907 65.41095 34861 ft 509 kts 140°
2026-05-03 20:29 14.27407 65.45703 34855 ft 509 kts 140°
2026-05-03 20:30 14.21939 65.50283 34862 ft 509 kts 140°
2026-05-03 20:30 14.16433 65.54891 34871 ft 509 kts 140°
2026-05-03 20:31 14.10929 65.59494 34860 ft 509 kts 140°
2026-05-03 20:31 14.05427 65.64093 34857 ft 509 kts 140°
2026-05-03 20:32 13.99910 65.68701 34861 ft 510 kts 140°
2026-05-03 20:32 13.94406 65.73297 34859 ft 510 kts 140°
2026-05-03 20:33 13.88933 65.77862 34868 ft 509 kts 140°
2026-05-03 20:33 13.83430 65.82450 34863 ft 509 kts 140°
2026-05-03 20:34 13.77914 65.87045 34856 ft 510 kts 140°
2026-05-03 20:34 13.72400 65.91638 34867 ft 509 kts 140°
2026-05-03 20:35 13.66889 65.96224 34869 ft 509 kts 140°
2026-05-03 20:35 13.61407 66.00783 34868 ft 509 kts 140°
2026-05-03 20:36 13.55861 66.05392 34865 ft 509 kts 140°
2026-05-03 20:36 13.50380 66.09945 34859 ft 509 kts 140°
2026-05-03 20:37 13.44858 66.14529 34865 ft 509 kts 140°
2026-05-03 20:37 13.39340 66.19107 34869 ft 509 kts 140°
2026-05-03 20:38 13.33825 66.23679 34862 ft 509 kts 140°
2026-05-03 20:38 13.28352 66.28214 34861 ft 509 kts 140°
2026-05-03 20:39 13.22832 66.32785 34860 ft 509 kts 140°
2026-05-03 20:39 13.17312 66.37353 34862 ft 509 kts 140°
2026-05-03 20:40 13.11799 66.41914 34864 ft 509 kts 140°
2026-05-03 20:40 13.06286 66.46470 34860 ft 509 kts 140°
2026-05-03 20:41 13.00768 66.51029 34859 ft 509 kts 140°
2026-05-03 20:41 12.95245 66.55590 34864 ft 509 kts 140°
2026-05-03 20:42 12.89728 66.60142 34861 ft 509 kts 140°
2026-05-03 20:42 12.84212 66.64691 34863 ft 509 kts 140°
2026-05-03 20:43 12.78687 66.69244 34862 ft 509 kts 140°
2026-05-03 20:43 12.73198 66.73766 34866 ft 509 kts 140°
2026-05-03 20:44 12.67677 66.78311 34863 ft 509 kts 140°
2026-05-03 20:44 12.62155 66.82855 34863 ft 509 kts 140°
2026-05-03 20:45 12.56632 66.87397 34868 ft 509 kts 140°
2026-05-03 20:45 12.51109 66.91936 34863 ft 509 kts 140°
2026-05-03 20:46 12.45587 66.96471 34860 ft 509 kts 140°
2026-05-03 20:46 12.40062 67.01008 34860 ft 509 kts 140°
2026-05-03 20:47 12.34538 67.05539 34858 ft 509 kts 140°
2026-05-03 20:47 12.29044 67.10045 34868 ft 509 kts 140°
2026-05-03 20:48 12.23511 67.14579 34860 ft 509 kts 140°
2026-05-03 20:48 12.18021 67.19076 34861 ft 509 kts 140°
2026-05-03 20:49 12.12490 67.23604 34848 ft 509 kts 140°
2026-05-03 20:49 12.06958 67.28131 34845 ft 509 kts 141°
2026-05-03 20:50 12.01424 67.32657 34854 ft 510 kts 141°
2026-05-03 20:50 11.95887 67.37183 34843 ft 510 kts 141°
2026-05-03 20:51 11.90343 67.41711 34842 ft 510 kts 141°
2026-05-03 20:51 11.84822 67.46219 34849 ft 511 kts 140°
2026-05-03 20:52 11.79274 67.50749 34856 ft 511 kts 141°
2026-05-03 20:52 11.73717 67.55284 34869 ft 511 kts 141°
2026-05-03 20:53 11.68152 67.59822 34855 ft 512 kts 141°
2026-05-03 20:53 11.62583 67.64360 34863 ft 512 kts 141°
2026-05-03 20:54 11.57012 67.68897 34853 ft 513 kts 141°
2026-05-03 20:54 11.48648 67.75707 34861 ft 513 kts 141°
2026-05-03 20:55 11.43077 67.80239 34874 ft 512 kts 141°
2026-05-03 20:55 11.37536 67.84743 34859 ft 512 kts 142°
2026-05-03 20:56 11.31962 67.89273 34861 ft 512 kts 141°
2026-05-03 20:56 11.26394 67.93796 34850 ft 512 kts 141°
2026-05-03 20:57 11.20820 67.98321 34866 ft 511 kts 141°
2026-05-03 20:57 11.15249 68.02842 34861 ft 511 kts 142°
2026-05-03 20:58 11.09685 68.07354 34859 ft 511 kts 142°
2026-05-03 20:58 11.04160 68.11832 34857 ft 511 kts 142°
2026-05-03 20:59 10.98596 68.16340 34858 ft 511 kts 142°
2026-05-03 20:59 10.93029 68.20849 34859 ft 511 kts 142°
2026-05-03 21:00 10.89310 68.23859 34861 ft 511 kts 142°
2026-05-03 21:00 10.82835 68.29097 34862 ft 511 kts 142°
2026-05-03 21:01 10.77267 68.33600 34855 ft 511 kts 142°
2026-05-03 21:01 10.71693 68.38106 34858 ft 511 kts 142°
2026-05-03 21:02 10.66124 68.42604 34861 ft 511 kts 142°
2026-05-03 21:02 10.60550 68.47106 34859 ft 511 kts 142°
2026-05-03 21:03 10.55013 68.51575 34858 ft 511 kts 142°
2026-05-03 21:03 10.49434 68.56076 34858 ft 511 kts 142°
2026-05-03 21:04 10.43858 68.60572 34857 ft 511 kts 142°
2026-05-03 21:04 10.38284 68.65064 34858 ft 511 kts 142°
2026-05-03 21:05 10.32714 68.69552 34860 ft 512 kts 142°
2026-05-03 21:05 10.27128 68.74049 34860 ft 512 kts 142°
2026-05-03 21:06 10.21541 68.78546 34865 ft 512 kts 142°
2026-05-03 21:06 10.15995 68.83008 34864 ft 512 kts 142°
2026-05-03 21:07 10.10412 68.87497 34864 ft 511 kts 142°
2026-05-03 21:07 10.04830 68.91983 34861 ft 511 kts 142°
2026-05-03 21:08 9.99253 68.96464 34860 ft 511 kts 142°
2026-05-03 21:08 9.93677 69.00942 34859 ft 511 kts 142°
2026-05-03 21:09 9.88087 69.05428 34859 ft 511 kts 142°
2026-05-03 21:09 9.82511 69.09902 34863 ft 511 kts 142°
2026-05-03 21:10 9.76929 69.14379 34854 ft 511 kts 142°
2026-05-03 21:10 9.71357 69.18846 34853 ft 511 kts 142°
2026-05-03 21:11 9.65815 69.23279 34855 ft 510 kts 142°
2026-05-03 21:11 9.60238 69.27741 34853 ft 510 kts 142°
2026-05-03 21:12 9.54661 69.32202 34858 ft 510 kts 142°
2026-05-03 21:12 9.49092 69.36653 34856 ft 510 kts 142°
2026-05-03 21:13 9.43525 69.41102 34852 ft 510 kts 142°
2026-05-03 21:13 9.37989 69.45523 34853 ft 509 kts 142°
2026-05-03 21:14 9.32423 69.49968 34851 ft 509 kts 142°
2026-05-03 21:14 9.26855 69.54411 34858 ft 509 kts 142°
2026-05-03 21:15 9.21291 69.58850 34863 ft 509 kts 142°
2026-05-03 21:15 9.15736 69.63280 34861 ft 508 kts 142°
2026-05-03 21:16 9.10176 69.67711 34859 ft 508 kts 142°
2026-05-03 21:16 9.04626 69.72134 34856 ft 507 kts 142°
2026-05-03 21:17 9.00018 69.75804 34846 ft 507 kts 143°
2026-05-03 21:17 8.93572 69.80936 34843 ft 507 kts 142°
2026-05-03 21:18 8.88034 69.85342 34845 ft 506 kts 142°
2026-05-03 21:18 8.82499 69.89745 34860 ft 506 kts 142°
2026-05-03 21:19 8.76965 69.94146 34854 ft 505 kts 142°
2026-05-03 21:19 8.71471 69.98514 34852 ft 505 kts 142°
2026-05-03 21:20 8.65947 70.02903 34845 ft 505 kts 142°
2026-05-03 21:20 8.60420 70.07293 34846 ft 505 kts 142°
2026-05-03 21:21 8.54900 70.11675 34851 ft 504 kts 142°
2026-05-03 21:21 8.49378 70.16059 34865 ft 503 kts 142°
2026-05-03 21:22 8.43867 70.20431 34851 ft 503 kts 142°
2026-05-03 21:22 8.38369 70.24791 34864 ft 502 kts 142°
2026-05-03 21:23 8.32908 70.29120 34860 ft 501 kts 142°
2026-05-03 21:23 8.27423 70.33468 34860 ft 500 kts 142°
2026-05-03 21:24 8.21958 70.37797 34846 ft 499 kts 142°
2026-05-03 21:24 8.16508 70.42111 34817 ft 500 kts 142°
2026-05-03 21:25 8.11027 70.46451 34818 ft 500 kts 142°
2026-05-03 21:25 8.05544 70.50791 34822 ft 501 kts 142°
2026-05-03 21:26 8.00050 70.55137 34841 ft 501 kts 142°
2026-05-03 21:26 7.94556 70.59481 34848 ft 501 kts 142°
2026-05-03 21:27 7.89062 70.63825 34858 ft 501 kts 142°
2026-05-03 21:27 7.83603 70.68138 34855 ft 501 kts 142°
2026-05-03 21:28 7.78107 70.72479 34844 ft 502 kts 142°
2026-05-03 21:28 7.72601 70.76828 34845 ft 501 kts 142°
2026-05-03 21:29 7.67108 70.81165 34848 ft 502 kts 142°
2026-05-03 21:29 7.61616 70.85498 34852 ft 502 kts 142°
2026-05-03 21:30 7.56120 70.89834 34855 ft 501 kts 142°
2026-05-03 21:30 7.50897 70.94409 34853 ft 501 kts 133°
2026-05-03 21:31 7.46658 70.99957 34842 ft 500 kts 122°
2026-05-03 21:31 7.42966 71.05896 34843 ft 500 kts 122°
2026-05-03 21:32 7.39243 71.11822 34843 ft 500 kts 122°
2026-05-03 21:32 7.35522 71.17750 34836 ft 500 kts 122°
2026-05-03 21:33 7.31801 71.23681 34842 ft 500 kts 122°
2026-05-03 21:33 7.28103 71.29575 34834 ft 501 kts 122°
2026-05-03 21:34 7.24359 71.35540 34846 ft 501 kts 122°
2026-05-03 21:34 7.20657 71.41433 34844 ft 501 kts 122°
2026-05-03 21:35 7.16932 71.47361 34843 ft 500 kts 122°
2026-05-03 21:35 7.13213 71.53278 34851 ft 499 kts 122°
2026-05-03 21:36 7.09497 71.59189 34868 ft 498 kts 122°
2026-05-03 21:36 7.05787 71.65086 34847 ft 498 kts 122°
2026-05-03 21:37 7.02078 71.70979 34843 ft 497 kts 122°
2026-05-03 21:37 6.98377 71.76859 34851 ft 496 kts 122°
2026-05-03 21:38 6.94683 71.82725 34825 ft 497 kts 122°
2026-05-03 21:38 6.91012 71.88552 34842 ft 496 kts 122°
2026-05-03 21:39 6.87318 71.94415 34838 ft 495 kts 122°
2026-05-03 21:39 6.83624 72.00273 34835 ft 495 kts 122°
2026-05-03 21:40 6.79932 72.06129 34832 ft 495 kts 122°
2026-05-03 21:40 6.76245 72.11974 34837 ft 495 kts 122°
2026-05-03 21:41 6.72555 72.17821 34836 ft 495 kts 122°
2026-05-03 21:41 6.68861 72.23673 34831 ft 495 kts 122°
2026-05-03 21:42 6.65191 72.29485 34838 ft 495 kts 122°
2026-05-03 21:42 6.61499 72.35330 34836 ft 495 kts 122°
2026-05-03 21:43 6.57796 72.41189 34839 ft 495 kts 122°
2026-05-03 21:43 6.54106 72.47028 34840 ft 495 kts 122°
2026-05-03 21:44 6.50409 72.52873 34840 ft 495 kts 122°
2026-05-03 21:44 6.46704 72.58732 34839 ft 495 kts 122°
2026-05-03 21:45 6.43630 72.63591 34836 ft 496 kts 123°
2026-05-03 21:45 6.39319 72.70401 34841 ft 496 kts 123°
2026-05-03 21:46 6.35616 72.76251 34840 ft 496 kts 123°
2026-05-03 21:46 6.32534 72.81117 34841 ft 496 kts 123°
2026-05-03 21:47 6.28833 72.86960 34842 ft 496 kts 123°
2026-05-03 21:47 6.25130 72.92803 34844 ft 496 kts 123°
2026-05-03 21:48 6.21419 72.98656 34843 ft 496 kts 122°
2026-05-03 21:48 6.17711 73.04504 34834 ft 496 kts 122°
2026-05-03 21:49 6.14002 73.10351 34846 ft 496 kts 122°
2026-05-03 21:49 6.10296 73.16192 34841 ft 496 kts 122°
2026-05-03 21:50 6.06583 73.22042 34842 ft 496 kts 122°
2026-05-03 21:50 6.02877 73.27880 34846 ft 496 kts 122°
2026-05-03 21:51 5.99165 73.33724 34848 ft 495 kts 122°
2026-05-03 21:51 5.95477 73.39530 34838 ft 495 kts 122°
2026-05-03 21:52 5.91770 73.45364 34832 ft 496 kts 122°
2026-05-03 21:52 5.88059 73.51202 34839 ft 495 kts 122°
2026-05-03 21:53 5.84352 73.57032 34831 ft 495 kts 122°
2026-05-03 21:53 5.80642 73.62865 34842 ft 495 kts 122°
2026-05-03 21:54 5.76940 73.68683 34850 ft 494 kts 122°
2026-05-03 21:54 5.73245 73.74490 34842 ft 493 kts 122°
2026-05-03 21:55 5.69549 73.80296 34839 ft 493 kts 122°
2026-05-03 21:55 5.65856 73.86095 34833 ft 493 kts 122°
2026-05-03 21:56 5.62189 73.91853 34835 ft 492 kts 122°
2026-05-03 21:56 5.58497 73.97648 34829 ft 492 kts 122°
2026-05-03 21:57 5.54802 74.03445 34827 ft 492 kts 122°
2026-05-03 21:57 5.51108 74.09240 34831 ft 492 kts 122°
2026-05-03 21:58 5.47417 74.15029 34844 ft 492 kts 122°
2026-05-03 21:58 5.43747 74.20782 34841 ft 492 kts 122°
2026-05-03 21:59 5.40057 74.26566 34833 ft 492 kts 122°
2026-05-03 21:59 5.36363 74.32355 34839 ft 492 kts 122°
2026-05-03 22:00 5.32672 74.38137 34831 ft 492 kts 122°
2026-05-03 22:00 5.28974 74.43928 34831 ft 492 kts 122°
2026-05-03 22:01 5.25281 74.49710 34832 ft 493 kts 122°
2026-05-03 22:01 5.21579 74.55505 34839 ft 493 kts 122°
2026-05-03 22:02 5.17895 74.61270 34851 ft 493 kts 122°
2026-05-03 22:02 5.14188 74.67070 34831 ft 494 kts 122°
2026-05-03 22:03 5.10483 74.72865 34856 ft 493 kts 122°
2026-05-03 22:03 5.06778 74.78658 34846 ft 494 kts 122°
2026-05-03 22:04 5.03090 74.84423 34846 ft 494 kts 122°
2026-05-03 22:04 4.99378 74.90225 34844 ft 494 kts 122°
2026-05-03 22:05 4.95665 74.96027 34836 ft 494 kts 122°
2026-05-03 22:05 4.91956 75.01821 34869 ft 493 kts 122°
2026-05-03 22:06 4.88246 75.07615 34831 ft 494 kts 122°
2026-05-03 22:06 4.84531 75.13416 34846 ft 494 kts 122°
2026-05-03 22:07 4.80843 75.19173 34851 ft 494 kts 122°
2026-05-03 22:07 4.77120 75.24984 34816 ft 495 kts 122°
2026-05-03 22:08 4.73390 75.30804 34824 ft 496 kts 122°
2026-05-03 22:08 4.69653 75.36633 34831 ft 497 kts 122°
2026-05-03 22:09 4.65906 75.42476 34846 ft 498 kts 122°
2026-05-03 22:10 4.60276 75.51252 34849 ft 500 kts 122°
2026-05-03 22:10 4.56517 75.57111 34862 ft 500 kts 122°
2026-05-03 22:11 4.52756 75.62973 34854 ft 501 kts 122°
2026-05-03 22:11 4.48985 75.68847 34857 ft 501 kts 122°
2026-05-03 22:12 4.45233 75.74690 34862 ft 500 kts 122°
2026-05-03 22:12 4.41465 75.80557 34888 ft 500 kts 122°
2026-05-03 22:13 4.37706 75.86409 34882 ft 499 kts 122°
2026-05-03 22:13 4.33945 75.92264 34937 ft 501 kts 122°
2026-05-03 22:13 4.32068 75.95184 35315 ft 497 kts 122°
2026-05-03 22:14 4.30198 75.98094 35664 ft 494 kts 122°
2026-05-03 22:14 4.28339 76.00985 36027 ft 491 kts 122°
2026-05-03 22:14 4.26492 76.03860 36249 ft 491 kts 122°
2026-05-03 22:14 4.24660 76.06711 36373 ft 494 kts 122°
2026-05-03 22:15 4.22777 76.09639 36682 ft 492 kts 122°
2026-05-03 22:15 4.20945 76.12487 36841 ft 493 kts 122°
2026-05-03 22:15 4.19095 76.15364 36861 ft 487 kts 122°
2026-05-03 22:16 4.15434 76.21057 36850 ft 488 kts 122°
2026-05-03 22:16 4.11756 76.26773 36848 ft 486 kts 122°
2026-05-03 22:17 4.08094 76.32466 36851 ft 488 kts 122°
2026-05-03 22:17 4.04413 76.38185 36831 ft 487 kts 122°
2026-05-03 22:18 4.00761 76.43859 36811 ft 484 kts 122°
2026-05-03 22:18 3.97121 76.49514 36863 ft 482 kts 122°
2026-05-03 22:19 3.93483 76.55161 36849 ft 488 kts 122°
2026-05-03 22:19 3.89802 76.60877 36852 ft 488 kts 121°
2026-05-03 22:20 3.86109 76.66610 36854 ft 488 kts 122°
2026-05-03 22:20 3.82437 76.72309 36854 ft 488 kts 121°
2026-05-03 22:21 3.78742 76.78045 36862 ft 491 kts 121°
2026-05-03 22:21 3.75058 76.83759 36894 ft 492 kts 121°
2026-05-03 22:22 3.71342 76.89525 36873 ft 494 kts 122°
2026-05-03 22:22 3.67613 76.95306 36888 ft 494 kts 122°
2026-05-03 22:23 3.63898 77.01065 36854 ft 490 kts 121°
2026-05-03 22:23 3.60199 77.06799 36855 ft 489 kts 121°
2026-05-03 22:24 3.56516 77.12508 36850 ft 486 kts 122°
2026-05-03 22:24 3.52831 77.18221 36858 ft 491 kts 122°
2026-05-03 22:25 3.49129 77.23957 36877 ft 489 kts 122°
2026-05-03 22:25 3.45462 77.29638 36870 ft 488 kts 122°
2026-05-03 22:26 3.41779 77.35343 36865 ft 487 kts 122°
2026-05-03 22:26 3.38101 77.41037 36845 ft 486 kts 122°
2026-05-03 22:27 3.34432 77.46720 36829 ft 486 kts 122°
2026-05-03 22:27 3.30755 77.52411 36839 ft 485 kts 122°
2026-05-03 22:28 3.27115 77.58047 36842 ft 485 kts 122°
2026-05-03 22:28 3.23442 77.63731 36855 ft 485 kts 122°
2026-05-03 22:29 3.19772 77.69410 36866 ft 485 kts 122°
2026-05-03 22:29 3.16103 77.75088 36818 ft 487 kts 122°
2026-05-03 22:30 3.12449 77.80740 36864 ft 486 kts 122°
2026-05-03 22:30 3.08764 77.86441 36861 ft 487 kts 122°
2026-05-03 22:31 3.05079 77.92141 36876 ft 487 kts 122°
2026-05-03 22:31 3.01392 77.97843 36864 ft 488 kts 122°
2026-05-03 22:32 2.97336 78.03288 36830 ft 489 kts 128°
2026-05-03 22:32 2.93765 78.07685 36872 ft 489 kts 128°
2026-05-03 22:33 2.89482 78.12988 36882 ft 489 kts 128°
2026-05-03 22:33 2.85198 78.18287 36873 ft 490 kts 128°
2026-05-03 22:34 2.80927 78.23567 36865 ft 490 kts 128°
2026-05-03 22:34 2.76631 78.28874 36872 ft 490 kts 128°
2026-05-03 22:35 2.72339 78.34178 36866 ft 490 kts 128°
2026-05-03 22:35 2.68047 78.39480 36858 ft 490 kts 128°
2026-05-03 22:36 2.63781 78.44749 36872 ft 490 kts 128°
2026-05-03 22:36 2.59490 78.50046 36885 ft 489 kts 128°
2026-05-03 22:37 2.55211 78.55331 36870 ft 489 kts 128°
2026-05-03 22:37 2.50930 78.60617 36869 ft 488 kts 127°
2026-05-03 22:38 2.46656 78.65894 36867 ft 488 kts 127°
2026-05-03 22:38 2.42384 78.71168 36846 ft 488 kts 127°
2026-05-03 22:39 2.38111 78.76443 36827 ft 488 kts 128°
2026-05-03 22:39 2.33865 78.81682 36821 ft 489 kts 127°
2026-05-03 22:40 2.29590 78.86956 36862 ft 488 kts 128°
2026-05-03 22:40 2.25299 78.92252 36853 ft 489 kts 128°
2026-05-03 22:41 2.21016 78.97534 36894 ft 488 kts 127°
2026-05-03 22:41 2.16739 79.02810 36905 ft 488 kts 127°
2026-05-03 22:42 2.12458 79.08092 36871 ft 488 kts 127°
2026-05-03 22:42 2.08190 79.13358 36856 ft 488 kts 128°
2026-05-03 22:43 2.03916 79.18629 36870 ft 487 kts 128°
2026-05-03 22:43 1.99644 79.23897 36861 ft 487 kts 128°
2026-05-03 22:44 1.95369 79.29168 36826 ft 488 kts 128°
2026-05-03 22:44 1.91130 79.34392 36870 ft 487 kts 128°
2026-05-03 22:45 1.86860 79.39657 36865 ft 487 kts 128°
2026-05-03 22:45 1.82587 79.44926 36844 ft 488 kts 128°
2026-05-03 22:46 1.78302 79.50208 36841 ft 489 kts 128°
2026-05-03 22:46 1.74007 79.55500 36855 ft 490 kts 128°
2026-05-03 22:47 1.69695 79.60814 36855 ft 492 kts 128°
2026-05-03 22:47 1.65372 79.66142 36860 ft 493 kts 128°
2026-05-03 22:48 1.61077 79.71434 36874 ft 494 kts 128°
2026-05-03 22:48 1.56746 79.76769 36891 ft 494 kts 128°
2026-05-03 22:49 1.52406 79.82118 36867 ft 496 kts 128°
2026-05-03 22:49 1.48053 79.87480 36857 ft 497 kts 128°
2026-05-03 22:50 1.43684 79.92861 36866 ft 498 kts 128°
2026-05-03 22:50 1.39310 79.98249 36876 ft 499 kts 128°
2026-05-03 22:51 1.34930 80.03645 36882 ft 500 kts 128°
2026-05-03 22:51 1.30541 80.09049 36887 ft 501 kts 128°
2026-05-03 22:52 1.26154 80.14452 36886 ft 501 kts 128°
2026-05-03 22:52 1.21790 80.19827 36877 ft 501 kts 128°
2026-05-03 22:53 1.17385 80.25251 36883 ft 501 kts 128°
2026-05-03 22:53 1.12992 80.30661 36879 ft 501 kts 128°
2026-05-03 22:54 1.08592 80.36078 36879 ft 502 kts 128°
2026-05-03 22:54 1.04195 80.41492 36882 ft 501 kts 128°
2026-05-03 22:55 0.99797 80.46906 36871 ft 501 kts 128°
2026-05-03 22:55 0.95423 80.52291 36869 ft 501 kts 128°
2026-05-03 22:56 0.91021 80.57709 36857 ft 502 kts 128°
2026-05-03 22:56 0.86620 80.63129 36868 ft 501 kts 128°
2026-05-03 22:57 0.82221 80.68543 36864 ft 502 kts 127°
2026-05-03 22:57 0.77821 80.73959 36858 ft 502 kts 128°
2026-05-03 22:58 0.73418 80.79378 36885 ft 502 kts 127°
2026-05-03 22:58 0.69017 80.84794 36872 ft 501 kts 127°
2026-05-03 22:59 0.64648 80.90170 36871 ft 501 kts 127°
2026-05-03 22:59 0.60252 80.95582 36865 ft 501 kts 127°
2026-05-03 23:00 0.55859 81.00989 36865 ft 501 kts 128°
2026-05-03 23:00 0.51469 81.06391 36861 ft 500 kts 128°
2026-05-03 23:01 0.47078 81.11793 36854 ft 501 kts 127°
2026-05-03 23:01 0.42690 81.17195 36855 ft 500 kts 128°
2026-05-03 23:02 0.38307 81.22588 36853 ft 500 kts 128°
2026-05-03 23:02 0.33943 81.27957 36849 ft 500 kts 127°
2026-05-03 23:03 0.29548 81.33368 36821 ft 502 kts 128°
2026-05-03 23:03 0.25133 81.38799 36831 ft 503 kts 128°
2026-05-03 23:04 0.20720 81.44229 36829 ft 504 kts 128°
2026-05-03 23:04 0.16322 81.49640 36832 ft 506 kts 128°
2026-05-03 23:05 0.11855 81.55136 36855 ft 507 kts 128°
2026-05-03 23:05 0.07438 81.60572 36860 ft 508 kts 128°
2026-05-03 23:06 0.02982 81.66055 36882 ft 508 kts 128°
2026-05-03 23:06 -0.01489 81.71557 36854 ft 510 kts 128°
2026-05-03 23:07 -0.05963 81.77061 36871 ft 510 kts 128°
2026-05-03 23:07 -0.10441 81.82571 36861 ft 511 kts 128°
2026-05-03 23:08 -0.14889 81.88044 36859 ft 511 kts 128°
2026-05-03 23:08 -0.19376 81.93565 36872 ft 511 kts 128°
2026-05-03 23:09 -0.23851 81.99072 36861 ft 511 kts 128°
2026-05-03 23:09 -0.28333 82.04587 36853 ft 510 kts 128°
2026-05-03 23:10 -0.32800 82.10083 36850 ft 510 kts 128°
2026-05-03 23:10 -0.37272 82.15586 36854 ft 509 kts 128°
2026-05-03 23:11 -0.41734 82.21077 36869 ft 508 kts 128°
2026-05-03 23:11 -0.46188 82.26558 36864 ft 507 kts 128°
2026-05-03 23:12 -0.50630 82.32025 36845 ft 507 kts 128°
2026-05-03 23:12 -0.55042 82.37455 36841 ft 506 kts 128°
2026-05-03 23:13 -0.59471 82.42905 36869 ft 504 kts 128°
2026-05-03 23:13 -0.63889 82.48342 36853 ft 503 kts 128°
2026-05-03 23:14 -0.68271 82.53735 36842 ft 502 kts 128°
2026-05-03 23:14 -0.72669 82.59148 36841 ft 501 kts 128°
2026-05-03 23:15 -0.77054 82.64545 36848 ft 500 kts 128°
2026-05-03 23:15 -0.81438 82.69942 36841 ft 499 kts 128°
2026-05-03 23:16 -0.85811 82.75325 36837 ft 499 kts 128°
2026-05-03 23:16 -0.90185 82.80710 36837 ft 498 kts 128°
2026-05-03 23:17 -0.94553 82.86086 36835 ft 498 kts 128°
2026-05-03 23:17 -0.98923 82.91466 36836 ft 498 kts 128°
2026-05-03 23:18 -1.03299 82.96854 36834 ft 498 kts 128°
2026-05-03 23:18 -1.07640 83.02199 36838 ft 498 kts 128°
2026-05-03 23:19 -1.12016 83.07586 36839 ft 499 kts 128°
2026-05-03 23:19 -1.16393 83.12975 36851 ft 499 kts 127°
2026-05-03 23:20 -1.20765 83.18359 36873 ft 498 kts 127°
2026-05-03 23:20 -1.24398 83.22833 36868 ft 498 kts 127°
2026-05-03 23:21 -1.28761 83.28207 36863 ft 497 kts 127°
2026-05-03 23:21 -1.33825 83.34444 36856 ft 497 kts 127°
2026-05-03 23:22 -1.39625 83.41587 36853 ft 496 kts 127°
2026-05-03 23:22 -1.43971 83.46940 36848 ft 496 kts 127°
2026-05-03 23:23 -1.48319 83.52296 36845 ft 495 kts 127°
2026-05-03 23:23 -1.52657 83.57640 36861 ft 494 kts 127°
2026-05-03 23:24 -1.56989 83.62978 36851 ft 494 kts 127°
2026-05-03 23:24 -1.61316 83.68310 36847 ft 493 kts 127°
2026-05-03 23:25 -1.65636 83.73633 36846 ft 493 kts 127°
2026-05-03 23:25 -1.69956 83.78957 36843 ft 493 kts 127°
2026-05-03 23:26 -1.74274 83.84279 36844 ft 493 kts 127°
2026-05-03 23:26 -1.78563 83.89565 36842 ft 492 kts 127°
2026-05-03 23:27 -1.82884 83.94891 36826 ft 493 kts 127°
2026-05-03 23:27 -1.87210 84.00223 36821 ft 494 kts 127°
2026-05-03 23:28 -1.91542 84.05562 36802 ft 495 kts 127°
2026-05-03 23:28 -1.95884 84.10915 36827 ft 496 kts 127°
2026-05-03 23:29 -2.00218 84.16239 36835 ft 497 kts 129°
2026-05-03 23:29 -2.04874 84.21390 36842 ft 499 kts 130°
2026-05-03 23:30 -2.09528 84.26553 36852 ft 500 kts 130°
2026-05-03 23:30 -2.14190 84.31724 36848 ft 501 kts 130°
2026-05-03 23:31 -2.18862 84.36904 36856 ft 502 kts 130°
2026-05-03 23:31 -2.23542 84.42093 36862 ft 503 kts 130°
2026-05-03 23:32 -2.28230 84.47292 36864 ft 503 kts 130°
2026-05-03 23:32 -2.32924 84.52499 36864 ft 503 kts 130°
2026-05-03 23:33 -2.37593 84.57678 36869 ft 503 kts 130°
2026-05-03 23:33 -2.42278 84.62874 36866 ft 503 kts 130°
2026-05-03 23:34 -2.46967 84.68076 36862 ft 503 kts 130°
2026-05-03 23:34 -2.51658 84.73282 36856 ft 503 kts 130°
2026-05-03 23:35 -2.56341 84.78479 36854 ft 503 kts 130°
2026-05-03 23:35 -2.60995 84.83644 36851 ft 502 kts 130°
2026-05-03 23:36 -2.65680 84.88845 36849 ft 502 kts 130°
2026-05-03 23:36 -2.70328 84.94004 36854 ft 501 kts 130°
2026-05-03 23:37 -2.74993 84.99183 36854 ft 501 kts 130°
2026-05-03 23:37 -2.79688 85.04397 36851 ft 501 kts 130°
2026-05-03 23:38 -2.84314 85.09534 36855 ft 500 kts 130°
2026-05-03 23:38 -2.88969 85.14705 36848 ft 499 kts 130°
2026-05-03 23:39 -2.93621 85.19872 36844 ft 499 kts 130°
2026-05-03 23:39 -2.98268 85.25035 36845 ft 499 kts 130°
2026-05-03 23:40 -3.02916 85.30200 36845 ft 499 kts 130°
2026-05-03 23:40 -3.07560 85.35360 36850 ft 498 kts 130°
2026-05-03 23:41 -3.12197 85.40515 36850 ft 498 kts 130°
2026-05-03 23:41 -3.16790 85.45621 36855 ft 497 kts 130°
2026-05-03 23:42 -3.21425 85.50773 36852 ft 497 kts 130°
2026-05-03 23:42 -3.26039 85.55904 36848 ft 496 kts 130°
2026-05-03 23:43 -3.30663 85.61046 36848 ft 496 kts 130°
2026-05-03 23:43 -3.35283 85.66184 36846 ft 496 kts 130°
2026-05-03 23:44 -3.39899 85.71320 36845 ft 496 kts 130°
2026-05-03 23:44 -3.44486 85.76423 36847 ft 496 kts 130°
2026-05-03 23:45 -3.49100 85.81558 36843 ft 495 kts 130°
2026-05-03 23:45 -3.53717 85.86697 36844 ft 496 kts 130°
2026-05-03 23:46 -3.58332 85.91833 36845 ft 496 kts 130°
2026-05-03 23:46 -3.62914 85.96934 36846 ft 496 kts 130°
2026-05-03 23:47 -3.67527 86.02071 36848 ft 496 kts 130°
2026-05-03 23:47 -3.72143 86.07212 36849 ft 496 kts 130°
2026-05-03 23:48 -3.76762 86.12357 36851 ft 496 kts 130°
2026-05-03 23:48 -3.81376 86.17498 36854 ft 496 kts 130°
2026-05-03 23:49 -3.85992 86.22642 36862 ft 496 kts 130°
2026-05-03 23:49 -3.90606 86.27783 36860 ft 496 kts 130°
2026-05-03 23:50 -3.94434 86.32050 36858 ft 496 kts 130°
2026-05-03 23:50 -3.99820 86.38054 36857 ft 495 kts 130°
2026-05-03 23:51 -4.04397 86.43159 36855 ft 495 kts 130°
2026-05-03 23:51 -4.09002 86.48294 36854 ft 495 kts 130°
2026-05-03 23:52 -4.13606 86.53430 36852 ft 495 kts 130°
2026-05-03 23:52 -4.18205 86.58561 36849 ft 495 kts 130°
2026-05-03 23:53 -4.22806 86.63695 36851 ft 495 kts 130°
2026-05-03 23:53 -4.27377 86.68797 36850 ft 494 kts 130°
2026-05-03 23:54 -4.31976 86.73930 36851 ft 494 kts 130°
2026-05-03 23:54 -4.36571 86.79061 36851 ft 494 kts 130°
2026-05-03 23:55 -4.41168 86.84195 36854 ft 495 kts 130°
2026-05-03 23:55 -4.45764 86.89328 36854 ft 495 kts 130°
2026-05-03 23:56 -4.50358 86.94461 36855 ft 495 kts 130°
2026-05-03 23:56 -4.54959 86.99602 36863 ft 494 kts 130°
2026-05-03 23:57 -4.59516 87.04696 36878 ft 493 kts 130°
2026-05-03 23:57 -4.64098 87.09818 36865 ft 493 kts 130°
2026-05-03 23:58 -4.68675 87.14936 36866 ft 492 kts 130°
2026-05-03 23:58 -4.73244 87.20046 36866 ft 491 kts 130°
2026-05-03 23:59 -4.77779 87.25119 36860 ft 491 kts 130°
2026-05-03 23:59 -4.82337 87.30218 36857 ft 491 kts 130°
2026-05-04 00:00 -4.86887 87.35311 36854 ft 490 kts 130°
2026-05-04 00:00 -4.91454 87.40422 36853 ft 490 kts 130°
2026-05-04 00:01 -4.96005 87.45517 36850 ft 491 kts 130°
2026-05-04 00:01 -5.00565 87.50623 36852 ft 491 kts 130°
2026-05-04 00:02 -5.05166 87.55702 36855 ft 492 kts 131°
2026-05-04 00:02 -5.09752 87.60739 36859 ft 492 kts 131°
2026-05-04 00:03 -5.14356 87.65807 36863 ft 492 kts 131°
2026-05-04 00:03 -5.18982 87.70904 36870 ft 493 kts 131°
2026-05-04 00:04 -5.23596 87.75989 36864 ft 493 kts 131°
2026-05-04 00:04 -5.28219 87.81084 36872 ft 494 kts 131°
2026-05-04 00:05 -5.32855 87.86196 36876 ft 494 kts 131°
2026-05-04 00:05 -5.37491 87.91309 36866 ft 495 kts 131°
2026-05-04 00:06 -5.42130 87.96426 36875 ft 496 kts 131°
2026-05-04 00:06 -5.46773 88.01550 36875 ft 496 kts 131°
2026-05-04 00:07 -5.51361 88.06614 36885 ft 496 kts 131°
2026-05-04 00:07 -5.56040 88.11778 36883 ft 497 kts 131°
2026-05-04 00:08 -5.60690 88.16914 36885 ft 497 kts 131°
2026-05-04 00:08 -5.65349 88.22061 36884 ft 497 kts 131°
2026-05-04 00:09 -5.69214 88.26332 36881 ft 497 kts 131°
2026-05-04 00:09 -5.73869 88.31476 36876 ft 498 kts 131°
2026-05-04 00:10 -5.78527 88.36625 36881 ft 498 kts 131°
2026-05-04 00:10 -5.83186 88.41775 36883 ft 498 kts 131°
2026-05-04 00:11 -5.87844 88.46929 36883 ft 498 kts 131°
2026-05-04 00:11 -5.92510 88.52091 36882 ft 499 kts 131°
2026-05-04 00:12 -5.97177 88.57255 36887 ft 499 kts 131°
2026-05-04 00:12 -6.01845 88.62422 36888 ft 499 kts 131°
2026-05-04 00:13 -6.06491 88.67566 36888 ft 500 kts 131°
2026-05-04 00:13 -6.11165 88.72742 36870 ft 500 kts 131°
2026-05-04 00:14 -6.15845 88.77926 36875 ft 501 kts 130°
2026-05-04 00:14 -6.20530 88.83118 36878 ft 501 kts 130°
2026-05-04 00:15 -6.25214 88.88314 36895 ft 502 kts 131°
2026-05-04 00:15 -6.29901 88.93508 36892 ft 502 kts 131°
2026-05-04 00:16 -6.34601 88.98721 36900 ft 502 kts 131°
2026-05-04 00:16 -6.39265 89.03895 36897 ft 503 kts 131°
2026-05-04 00:17 -6.43963 89.09107 36891 ft 503 kts 131°
2026-05-04 00:17 -6.48667 89.14329 36871 ft 504 kts 130°
2026-05-04 00:18 -6.53372 89.19554 36879 ft 504 kts 131°
2026-05-04 00:18 -6.58082 89.24787 36875 ft 505 kts 131°
2026-05-04 00:19 -6.62798 89.30027 36878 ft 505 kts 131°
2026-05-04 00:19 -6.67520 89.35275 36881 ft 506 kts 131°
2026-05-04 00:20 -6.72243 89.40526 36911 ft 506 kts 131°
2026-05-04 00:20 -6.76944 89.45753 36899 ft 506 kts 131°
2026-05-04 00:21 -6.81668 89.51009 36911 ft 506 kts 131°
2026-05-04 00:21 -6.86393 89.56266 36887 ft 507 kts 130°
2026-05-04 00:22 -6.91122 89.61531 36905 ft 507 kts 131°
2026-05-04 00:22 -6.95855 89.66802 36912 ft 507 kts 131°
2026-05-04 00:23 -7.00588 89.72074 36901 ft 507 kts 131°
2026-05-04 00:23 -7.05313 89.77339 36911 ft 507 kts 131°
2026-05-04 00:24 -7.10037 89.82605 36914 ft 506 kts 131°
2026-05-04 00:24 -7.14768 89.87880 36890 ft 506 kts 131°
2026-05-04 00:25 -7.19457 89.93111 36908 ft 506 kts 131°
2026-05-04 00:25 -7.24173 89.98372 36885 ft 506 kts 130°
2026-05-04 00:26 -7.28891 90.03638 36889 ft 506 kts 131°
2026-05-04 00:26 -7.33606 90.08903 36895 ft 506 kts 131°
2026-05-04 00:27 -7.38329 90.14177 36888 ft 506 kts 131°
2026-05-04 00:27 -7.43039 90.19440 36910 ft 506 kts 131°
2026-05-04 00:28 -7.47760 90.24716 36904 ft 506 kts 131°
2026-05-04 00:28 -7.52482 90.29995 36895 ft 506 kts 131°
2026-05-04 00:29 -7.57168 90.35237 36907 ft 506 kts 131°
2026-05-04 00:29 -7.61885 90.40514 36887 ft 506 kts 131°
2026-05-04 00:30 -7.66603 90.45794 36889 ft 507 kts 131°
2026-05-04 00:30 -7.71322 90.51078 36898 ft 507 kts 131°
2026-05-04 00:31 -7.76060 90.56385 36900 ft 508 kts 131°
2026-05-04 00:31 -7.80787 90.61682 36903 ft 508 kts 131°
2026-05-04 00:32 -7.85491 90.66954 36910 ft 508 kts 131°
2026-05-04 00:32 -7.90250 90.72291 36910 ft 508 kts 131°
2026-05-04 00:33 -7.97314 90.80214 36915 ft 509 kts 131°
2026-05-04 00:34 -8.02052 90.85532 36906 ft 509 kts 131°
2026-05-04 00:34 -8.06783 90.90843 36907 ft 509 kts 131°
2026-05-04 00:35 -8.11520 90.96165 36910 ft 509 kts 130°
2026-05-04 00:35 -8.16254 91.01483 36910 ft 509 kts 130°
2026-05-04 00:36 -8.20988 91.06805 36909 ft 509 kts 130°
2026-05-04 00:36 -8.25719 91.12124 36909 ft 509 kts 130°
2026-05-04 00:37 -8.30424 91.17417 36901 ft 509 kts 130°
2026-05-04 00:37 -8.35160 91.22747 36903 ft 509 kts 130°
2026-05-04 00:38 -8.39895 91.28077 36898 ft 510 kts 130°
2026-05-04 00:38 -8.44637 91.33418 36905 ft 510 kts 130°
2026-05-04 00:39 -8.49382 91.38763 36909 ft 511 kts 130°
2026-05-04 00:39 -8.54101 91.44083 36912 ft 511 kts 130°
2026-05-04 00:40 -8.58854 91.49441 36913 ft 511 kts 130°
2026-05-04 00:40 -8.63606 91.54803 36914 ft 512 kts 131°
2026-05-04 00:41 -8.68360 91.60168 36915 ft 512 kts 131°
2026-05-04 00:41 -8.73108 91.65527 36911 ft 512 kts 130°
2026-05-04 00:42 -8.77834 91.70865 36916 ft 512 kts 131°
2026-05-04 00:42 -8.82590 91.76239 36917 ft 512 kts 130°
2026-05-04 00:43 -8.87354 91.81624 36921 ft 512 kts 130°
2026-05-04 00:43 -8.92104 91.86996 36921 ft 512 kts 130°
2026-05-04 00:44 -8.96831 91.92344 36912 ft 513 kts 131°
2026-05-04 00:44 -9.01582 91.97720 36920 ft 513 kts 131°
2026-05-04 00:45 -9.06337 92.03104 36910 ft 513 kts 131°
2026-05-04 00:45 -9.11090 92.08487 36913 ft 513 kts 131°
2026-05-04 00:46 -9.15847 92.13879 36917 ft 513 kts 131°
2026-05-04 00:46 -9.20603 92.19271 36915 ft 513 kts 131°
2026-05-04 00:47 -9.25333 92.24636 36916 ft 514 kts 131°
2026-05-04 00:47 -9.30097 92.30042 36923 ft 514 kts 131°
2026-05-04 00:48 -9.34855 92.35444 36919 ft 514 kts 131°
2026-05-04 00:48 -9.39619 92.40854 36920 ft 514 kts 131°
2026-05-04 00:49 -9.44380 92.46264 36922 ft 514 kts 131°
2026-05-04 00:49 -9.49147 92.51683 36924 ft 515 kts 131°
2026-05-04 00:50 -9.53881 92.57067 36925 ft 515 kts 131°
2026-05-04 00:50 -9.58644 92.62487 36926 ft 515 kts 131°
2026-05-04 00:51 -9.63411 92.67914 36928 ft 515 kts 131°
2026-05-04 00:51 -9.68168 92.73332 36941 ft 514 kts 131°
2026-05-04 00:52 -9.72928 92.78754 36926 ft 514 kts 131°
2026-05-04 00:52 -9.77680 92.84171 36929 ft 514 kts 131°
2026-05-04 00:53 -9.82399 92.89552 36933 ft 513 kts 131°
2026-05-04 00:53 -9.87149 92.94972 36917 ft 514 kts 131°
2026-05-04 00:54 -9.91902 93.00397 36919 ft 514 kts 131°
2026-05-04 00:54 -9.96654 93.05826 36920 ft 514 kts 131°
2026-05-04 00:55 -10.01393 93.11240 36897 ft 515 kts 131°
2026-05-04 00:55 -10.06147 93.16675 36904 ft 516 kts 131°
2026-05-04 00:56 -10.10119 93.21217 36912 ft 517 kts 131°
2026-05-04 00:56 -10.14896 93.26683 36926 ft 518 kts 131°
2026-05-04 00:57 -10.20463 93.33056 36930 ft 519 kts 131°
2026-05-04 00:57 -10.25255 93.38544 36937 ft 520 kts 131°
2026-05-04 00:58 -10.29278 93.43154 36941 ft 520 kts 131°
2026-05-04 00:58 -10.34076 93.48654 36944 ft 521 kts 131°
2026-05-04 00:59 -10.38848 93.54128 36948 ft 521 kts 131°
2026-05-04 00:59 -10.43655 93.59643 36951 ft 521 kts 131°
2026-05-04 01:00 -10.48460 93.65158 36949 ft 521 kts 131°
2026-05-04 01:00 -10.53268 93.70679 36948 ft 520 kts 131°
2026-05-04 01:01 -10.58064 93.76189 36948 ft 520 kts 131°
2026-05-04 01:01 -10.62854 93.81695 36936 ft 520 kts 131°
2026-05-04 01:02 -10.67308 93.87478 36930 ft 519 kts 126°
2026-05-04 01:02 -10.71598 93.93371 36930 ft 519 kts 126°
2026-05-04 01:03 -10.75862 93.99210 36932 ft 519 kts 126°
2026-05-04 01:03 -10.80161 94.05108 36932 ft 519 kts 126°
2026-05-04 01:04 -10.84453 94.11004 36934 ft 519 kts 126°
2026-05-04 01:04 -10.88746 94.16904 36935 ft 519 kts 126°
2026-05-04 01:05 -10.93048 94.22823 36941 ft 519 kts 126°
2026-05-04 01:05 -10.97315 94.28695 36942 ft 519 kts 126°
2026-05-04 01:06 -11.01605 94.34602 36939 ft 519 kts 126°
2026-05-04 01:06 -11.05889 94.40505 36940 ft 519 kts 126°
2026-05-04 01:07 -11.10181 94.46424 36943 ft 519 kts 126°
2026-05-04 01:07 -11.14465 94.52334 36944 ft 519 kts 126°
2026-05-04 01:08 -11.18752 94.58251 36939 ft 518 kts 126°
2026-05-04 01:08 -11.23009 94.64129 36952 ft 518 kts 126°
2026-05-04 01:09 -11.27288 94.70043 36953 ft 517 kts 126°
2026-05-04 01:09 -11.31552 94.75939 36949 ft 517 kts 126°
2026-05-04 01:10 -11.35814 94.81835 36940 ft 516 kts 126°
2026-05-04 01:10 -11.40069 94.87725 36939 ft 516 kts 126°
2026-05-04 01:11 -11.44294 94.93576 36939 ft 515 kts 126°
2026-05-04 01:11 -11.48544 94.99465 36930 ft 515 kts 126°
2026-05-04 01:12 -11.52787 95.05349 36930 ft 515 kts 126°
2026-05-04 01:12 -11.57044 95.11256 36932 ft 516 kts 126°
2026-05-04 01:13 -11.61294 95.17156 36933 ft 516 kts 126°
2026-05-04 01:13 -11.65549 95.23068 36938 ft 516 kts 126°
2026-05-04 01:14 -11.69778 95.28945 36939 ft 517 kts 126°
2026-05-04 01:14 -11.74035 95.34864 36946 ft 517 kts 126°
2026-05-04 01:15 -11.78289 95.40784 36949 ft 517 kts 126°
2026-05-04 01:15 -11.82544 95.46708 36951 ft 517 kts 126°
2026-05-04 01:16 -11.86794 95.52630 36954 ft 517 kts 126°
2026-05-04 01:16 -11.91047 95.58559 36954 ft 517 kts 126°
2026-05-04 01:17 -11.95299 95.64490 36954 ft 517 kts 126°
2026-05-04 01:17 -11.99518 95.70378 36952 ft 517 kts 126°
2026-05-04 01:18 -12.03765 95.76310 36946 ft 517 kts 126°
2026-05-04 01:18 -12.08008 95.82238 36949 ft 517 kts 126°
2026-05-04 01:19 -12.12259 95.88183 36947 ft 517 kts 126°
2026-05-04 01:19 -12.16507 95.94127 36951 ft 518 kts 126°
2026-05-04 01:20 -12.20758 96.00079 36953 ft 518 kts 126°
2026-05-04 01:20 -12.25004 96.06026 36954 ft 518 kts 126°
2026-05-04 01:21 -12.29249 96.11976 36950 ft 518 kts 126°
2026-05-04 01:21 -12.33496 96.17933 36952 ft 518 kts 126°
2026-05-04 01:22 -12.37748 96.23901 36951 ft 519 kts 126°
2026-05-04 01:22 -12.41972 96.29834 36954 ft 519 kts 126°
2026-05-04 01:23 -12.46228 96.35815 36960 ft 520 kts 126°
2026-05-04 01:23 -12.50484 96.41799 36962 ft 520 kts 126°
2026-05-04 01:24 -12.54742 96.47791 36965 ft 520 kts 126°
2026-05-04 01:24 -12.59004 96.53791 36968 ft 520 kts 126°
2026-05-04 01:25 -12.63227 96.59741 36970 ft 520 kts 126°
2026-05-04 01:25 -12.67479 96.65736 36971 ft 520 kts 126°
2026-05-04 01:26 -12.71736 96.71741 36959 ft 520 kts 126°
2026-05-04 01:26 -12.75984 96.77738 36961 ft 521 kts 126°
2026-05-04 01:27 -12.80238 96.83746 36958 ft 521 kts 126°
2026-05-04 01:27 -12.84493 96.89761 36964 ft 521 kts 126°
2026-05-04 01:28 -12.88745 96.95776 36966 ft 521 kts 126°
2026-05-04 01:28 -12.93012 97.01815 36971 ft 522 kts 126°
2026-05-04 01:29 -12.97243 97.07808 36972 ft 522 kts 126°
2026-05-04 01:29 -13.01501 97.13842 36974 ft 522 kts 126°
2026-05-04 01:30 -13.05756 97.19877 36970 ft 523 kts 126°
2026-05-04 01:30 -13.10015 97.25920 36973 ft 523 kts 126°
2026-05-04 01:31 -13.14278 97.31975 36977 ft 523 kts 126°
2026-05-04 01:31 -13.18535 97.38024 36977 ft 523 kts 126°
2026-05-04 01:32 -13.22796 97.44083 36981 ft 523 kts 126°
2026-05-04 01:32 -13.27055 97.50144 36981 ft 523 kts 126°
2026-05-04 01:33 -13.31320 97.56217 36979 ft 523 kts 126°
2026-05-04 01:33 -13.35578 97.62286 36972 ft 523 kts 126°
2026-05-04 01:34 -13.39810 97.68320 36968 ft 524 kts 126°
2026-05-04 01:34 -13.44078 97.74410 36972 ft 524 kts 126°
2026-05-04 01:35 -13.48341 97.80497 36976 ft 525 kts 126°
2026-05-04 01:35 -13.52612 97.86600 36982 ft 525 kts 126°
2026-05-04 01:36 -13.56878 97.92701 36984 ft 525 kts 126°
2026-05-04 01:36 -13.61144 97.98806 36976 ft 526 kts 126°
2026-05-04 01:37 -13.65385 98.04879 36987 ft 526 kts 126°
2026-05-04 01:37 -13.69658 98.11002 36989 ft 526 kts 126°
2026-05-04 01:38 -13.73927 98.17124 36993 ft 527 kts 126°
2026-05-04 01:38 -13.78199 98.23255 36991 ft 527 kts 126°
2026-05-04 01:39 -13.82471 98.29390 36998 ft 527 kts 126°
2026-05-04 01:39 -13.86738 98.35522 36986 ft 527 kts 126°
2026-05-04 01:40 -13.91005 98.41658 36987 ft 527 kts 126°
2026-05-04 01:40 -13.95271 98.47798 36989 ft 527 kts 126°
2026-05-04 01:41 -13.99511 98.53905 36988 ft 527 kts 126°
2026-05-04 01:41 -14.03780 98.60059 36989 ft 527 kts 126°
2026-05-04 01:42 -14.08052 98.66222 36998 ft 528 kts 126°
2026-05-04 01:42 -14.12293 98.72342 36997 ft 528 kts 126°
2026-05-04 01:43 -14.16559 98.78505 36991 ft 528 kts 126°
2026-05-04 01:43 -14.20830 98.84679 36995 ft 528 kts 126°
2026-05-04 01:44 -14.25098 98.90854 37000 ft 529 kts 126°
2026-05-04 01:44 -14.28647 98.95991 37001 ft 529 kts 126°
2026-05-04 01:45 -14.32911 99.02169 36998 ft 529 kts 126°
2026-05-04 01:45 -14.39310 99.11447 37001 ft 529 kts 126°
2026-05-04 01:46 -14.43571 99.17632 37002 ft 529 kts 126°
2026-05-04 01:46 -14.47839 99.23832 37002 ft 529 kts 126°
2026-05-04 01:47 -14.52100 99.30026 37005 ft 529 kts 126°
2026-05-04 01:47 -14.56335 99.36186 37005 ft 529 kts 126°
2026-05-04 01:48 -14.60600 99.42396 37004 ft 529 kts 126°
2026-05-04 01:48 -14.64856 99.48596 37004 ft 529 kts 126°
2026-05-04 01:49 -14.69116 99.54808 37004 ft 529 kts 126°
2026-05-04 01:49 -14.73367 99.61014 37007 ft 530 kts 126°
2026-05-04 01:50 -14.77625 99.67233 37000 ft 530 kts 126°
2026-05-04 01:50 -14.81860 99.73420 37002 ft 531 kts 126°
2026-05-04 01:51 -14.86126 99.79657 37006 ft 531 kts 126°
2026-05-04 01:51 -14.90399 99.85908 37011 ft 531 kts 126°
2026-05-04 01:52 -14.94673 99.92166 37013 ft 531 kts 126°
2026-05-04 01:52 -14.98906 99.98369 37015 ft 532 kts 126°
2026-05-04 01:53 -15.02942 100.04782 37018 ft 532 kts 123°
2026-05-04 01:53 -15.06946 100.11221 37021 ft 532 kts 124°
2026-05-04 01:54 -15.10960 100.17676 37009 ft 533 kts 124°
2026-05-04 01:54 -15.14968 100.24140 37013 ft 533 kts 123°
2026-05-04 01:55 -15.18977 100.30618 37018 ft 534 kts 123°
2026-05-04 01:55 -15.22979 100.37092 37020 ft 534 kts 123°
2026-05-04 01:56 -15.26985 100.43579 37026 ft 535 kts 123°
2026-05-04 01:56 -15.30989 100.50067 37027 ft 535 kts 123°
2026-05-04 01:57 -15.34974 100.56531 37027 ft 535 kts 123°
2026-05-04 01:57 -15.38973 100.63023 37047 ft 534 kts 123°
2026-05-04 01:58 -15.42974 100.69526 37028 ft 535 kts 123°
2026-05-04 01:58 -15.46977 100.76035 37030 ft 535 kts 123°
2026-05-04 01:59 -15.50983 100.82555 37031 ft 536 kts 123°
2026-05-04 01:59 -15.54985 100.89074 37037 ft 536 kts 123°
2026-05-04 02:00 -15.58985 100.95596 37039 ft 536 kts 123°
2026-05-04 02:00 -15.62983 101.02119 37039 ft 536 kts 123°
2026-05-04 02:01 -15.66954 101.08605 37039 ft 536 kts 123°
2026-05-04 02:01 -15.70975 101.15178 37045 ft 536 kts 123°
2026-05-04 02:02 -15.74947 101.21678 37025 ft 536 kts 124°
2026-05-04 02:02 -15.78945 101.28225 37033 ft 537 kts 124°
2026-05-04 02:03 -15.82943 101.34777 37034 ft 537 kts 123°
2026-05-04 02:03 -15.86941 101.41335 37035 ft 537 kts 123°
2026-05-04 02:04 -15.90940 101.47902 37042 ft 538 kts 123°
2026-05-04 02:04 -15.94935 101.54467 37043 ft 538 kts 123°
2026-05-04 02:05 -15.98935 101.61047 37043 ft 538 kts 123°
2026-05-04 02:05 -16.02908 101.67587 37054 ft 538 kts 124°
2026-05-04 02:06 -16.06907 101.74179 37043 ft 538 kts 124°
2026-05-04 02:06 -16.10901 101.80765 37045 ft 538 kts 124°
2026-05-04 02:07 -16.14891 101.87351 37049 ft 538 kts 124°
2026-05-04 02:07 -16.18885 101.93952 37049 ft 538 kts 124°
2026-05-04 02:08 -16.22850 102.00508 37046 ft 538 kts 124°
2026-05-04 02:08 -16.26836 102.07106 37054 ft 538 kts 124°
2026-05-04 02:09 -16.30819 102.13706 37054 ft 538 kts 124°
2026-05-04 02:09 -16.34803 102.20315 37058 ft 537 kts 124°
2026-05-04 02:10 -16.38780 102.26916 37034 ft 538 kts 124°
2026-05-04 02:10 -16.42738 102.33491 37035 ft 538 kts 124°
2026-05-04 02:11 -16.46720 102.40113 37040 ft 539 kts 124°
2026-05-04 02:11 -16.50700 102.46738 37045 ft 539 kts 124°
2026-05-04 02:12 -16.54656 102.53330 37047 ft 539 kts 124°
2026-05-04 02:12 -16.58632 102.59960 37048 ft 539 kts 124°
2026-05-04 02:13 -16.62605 102.66592 37048 ft 539 kts 124°
2026-05-04 02:13 -16.66579 102.73232 37045 ft 540 kts 124°
2026-05-04 02:14 -16.70559 102.79887 37041 ft 541 kts 124°
2026-05-04 02:14 -16.74543 102.86556 37047 ft 541 kts 124°
2026-05-04 02:15 -16.78523 102.93226 37048 ft 541 kts 124°
2026-05-04 02:15 -16.82475 102.99854 37050 ft 541 kts 124°
2026-05-04 02:16 -16.86454 103.06534 37052 ft 542 kts 124°
2026-05-04 02:16 -16.90429 103.13213 37053 ft 542 kts 124°
2026-05-04 02:17 -16.94408 103.19907 37058 ft 541 kts 124°
2026-05-04 02:17 -16.98379 103.26595 37042 ft 542 kts 124°
2026-05-04 02:18 -17.02360 103.33303 37044 ft 542 kts 124°
2026-05-04 02:18 -17.06340 103.40017 37045 ft 543 kts 124°
2026-05-04 02:19 -17.10290 103.46686 37051 ft 543 kts 124°
2026-05-04 02:19 -17.14267 103.53409 37058 ft 542 kts 124°
2026-05-04 02:20 -17.18242 103.60135 37062 ft 542 kts 124°
2026-05-04 02:20 -17.22205 103.66848 37061 ft 542 kts 124°
2026-05-04 02:21 -17.26169 103.73567 37053 ft 542 kts 124°
2026-05-04 02:21 -17.30106 103.80250 37035 ft 543 kts 124°
2026-05-04 02:22 -17.34078 103.86996 37052 ft 544 kts 124°
2026-05-04 02:22 -17.38044 103.93740 37055 ft 544 kts 124°
2026-05-04 02:23 -17.42009 104.00487 37064 ft 545 kts 124°
2026-05-04 02:23 -17.45977 104.07249 37059 ft 545 kts 124°
2026-05-04 02:24 -17.49950 104.14025 37056 ft 546 kts 124°
2026-05-04 02:24 -17.53921 104.20805 37065 ft 546 kts 124°
2026-05-04 02:25 -17.57890 104.27587 37065 ft 545 kts 124°
2026-05-04 02:25 -17.61852 104.34366 37066 ft 545 kts 124°
2026-05-04 02:26 -17.65811 104.41145 37067 ft 545 kts 124°
2026-05-04 02:26 -17.69744 104.47888 37064 ft 545 kts 124°
2026-05-04 02:27 -17.73694 104.54666 37062 ft 544 kts 124°
2026-05-04 02:27 -17.77643 104.61449 37059 ft 544 kts 124°
2026-05-04 02:28 -17.81586 104.68230 37058 ft 544 kts 123°
2026-05-04 02:28 -17.85501 104.74969 37056 ft 544 kts 123°
2026-05-04 02:29 -17.89465 104.81801 37039 ft 545 kts 124°
2026-05-04 02:29 -17.93382 104.88551 37041 ft 545 kts 124°
2026-05-04 02:30 -17.97327 104.95358 37053 ft 545 kts 124°
2026-05-04 02:30 -18.01584 105.01913 37049 ft 541 kts 134°
2026-05-04 02:31 -18.06547 105.07847 37054 ft 540 kts 135°
2026-05-04 02:31 -18.11498 105.13800 37060 ft 541 kts 135°
2026-05-04 02:32 -18.16453 105.19760 37075 ft 541 kts 135°
2026-05-04 02:32 -18.21415 105.25729 37062 ft 542 kts 135°
2026-05-04 02:33 -18.26343 105.31662 37063 ft 542 kts 135°
2026-05-04 02:33 -18.31309 105.37650 37084 ft 542 kts 135°
2026-05-04 02:34 -18.35434 105.42629 37070 ft 542 kts 135°
2026-05-04 02:34 -18.40385 105.48609 37068 ft 542 kts 135°
2026-05-04 02:35 -18.45340 105.54601 37065 ft 542 kts 135°
2026-05-04 02:35 -18.50298 105.60602 37060 ft 543 kts 135°
2026-05-04 02:36 -18.55264 105.66617 37073 ft 543 kts 135°
2026-05-04 02:36 -18.60181 105.72580 37073 ft 543 kts 135°
2026-05-04 02:37 -18.65148 105.78609 37075 ft 543 kts 135°
2026-05-04 02:37 -18.70103 105.84629 37075 ft 543 kts 135°
2026-05-04 02:38 -18.75061 105.90659 37077 ft 543 kts 135°
2026-05-04 02:38 -18.80018 105.96693 37060 ft 545 kts 135°
2026-05-04 02:39 -18.84991 106.02752 37074 ft 545 kts 135°
2026-05-04 02:39 -18.89958 106.08811 37075 ft 545 kts 135°
2026-05-04 02:40 -18.94895 106.14839 37082 ft 545 kts 135°
2026-05-04 02:40 -18.99864 106.20911 37083 ft 546 kts 135°
2026-05-04 02:41 -19.04833 106.26990 37081 ft 546 kts 135°
2026-05-04 02:41 -19.09803 106.33077 37074 ft 547 kts 135°
2026-05-04 02:42 -19.14768 106.39163 37078 ft 547 kts 135°
2026-05-04 02:42 -19.19710 106.45227 37086 ft 547 kts 135°
2026-05-04 02:43 -19.24680 106.51331 37093 ft 547 kts 135°
2026-05-04 02:43 -19.29648 106.57440 37090 ft 547 kts 135°
2026-05-04 02:44 -19.34619 106.63558 37089 ft 547 kts 135°
2026-05-04 02:44 -19.39587 106.69679 37080 ft 548 kts 135°
2026-05-04 02:45 -19.44528 106.75773 37082 ft 548 kts 135°
2026-05-04 02:45 -19.49496 106.81905 37088 ft 548 kts 135°
2026-05-04 02:46 -19.54466 106.88047 37090 ft 548 kts 135°
2026-05-04 02:46 -19.59432 106.94192 37077 ft 548 kts 135°
2026-05-04 02:47 -19.64401 107.00345 37092 ft 548 kts 135°
2026-05-04 02:47 -19.69366 107.06500 37071 ft 549 kts 136°
2026-05-04 02:48 -19.74299 107.12621 37076 ft 549 kts 136°
2026-05-04 02:48 -19.79269 107.18795 37078 ft 549 kts 136°
2026-05-04 02:49 -19.84230 107.24965 37081 ft 549 kts 136°
2026-05-04 02:49 -19.89196 107.31147 37090 ft 549 kts 136°
2026-05-04 02:50 -19.94158 107.37331 37116 ft 549 kts 136°
2026-05-04 02:50 -19.99118 107.43518 37094 ft 549 kts 136°
2026-05-04 02:51 -20.04071 107.49704 37096 ft 549 kts 136°
2026-05-04 02:51 -20.09000 107.55866 37096 ft 549 kts 136°
2026-05-04 02:52 -20.13954 107.62066 37090 ft 549 kts 136°
2026-05-04 02:52 -20.18900 107.68262 37089 ft 549 kts 136°
2026-05-04 02:53 -20.23844 107.74463 37084 ft 549 kts 136°
2026-05-04 02:53 -20.28792 107.80676 37092 ft 549 kts 136°
2026-05-04 02:54 -20.33730 107.86883 37092 ft 549 kts 136°
2026-05-04 02:54 -20.38674 107.93104 37090 ft 549 kts 136°
2026-05-04 02:55 -20.46038 108.02381 37088 ft 549 kts 136°
2026-05-04 02:56 -20.50979 108.08616 37088 ft 549 kts 136°
2026-05-04 02:56 -20.55906 108.14839 37087 ft 549 kts 136°
2026-05-04 02:57 -20.60801 108.21028 37087 ft 549 kts 136°
2026-05-04 02:57 -20.65726 108.27263 37087 ft 549 kts 136°
2026-05-04 02:58 -20.70646 108.33497 37087 ft 549 kts 136°
2026-05-04 02:58 -20.75567 108.39740 37087 ft 549 kts 136°
2026-05-04 02:59 -20.80479 108.45979 37083 ft 549 kts 136°
2026-05-04 02:59 -20.85397 108.52231 37083 ft 550 kts 136°
2026-05-04 03:00 -20.90321 108.58499 37086 ft 550 kts 136°
2026-05-04 03:00 -20.95208 108.64726 37089 ft 550 kts 136°
2026-05-04 03:01 -21.00123 108.70997 37089 ft 550 kts 136°
2026-05-04 03:01 -21.05046 108.77285 37088 ft 550 kts 136°
2026-05-04 03:02 -21.09964 108.83573 37083 ft 551 kts 136°
2026-05-04 03:02 -21.14889 108.89877 37085 ft 551 kts 136°
2026-05-04 03:03 -21.19810 108.96184 37084 ft 551 kts 136°
2026-05-04 03:03 -21.24699 109.02456 37086 ft 552 kts 136°
2026-05-04 03:04 -21.29621 109.08777 37089 ft 552 kts 136°
2026-05-04 03:04 -21.34536 109.15099 37114 ft 551 kts 136°
2026-05-04 03:05 -21.39446 109.21420 37103 ft 551 kts 136°
2026-05-04 03:05 -21.44353 109.27744 37096 ft 550 kts 136°
2026-05-04 03:06 -21.49248 109.34061 37087 ft 550 kts 136°
2026-05-04 03:06 -21.54138 109.40379 37086 ft 549 kts 136°
2026-05-04 03:07 -21.59020 109.46692 37088 ft 549 kts 136°
2026-05-04 03:07 -21.63897 109.53007 37069 ft 549 kts 136°
2026-05-04 03:08 -21.68754 109.59304 37069 ft 550 kts 136°
2026-05-04 03:08 -21.73638 109.65642 37068 ft 550 kts 136°
2026-05-04 03:09 -21.78522 109.71989 37073 ft 550 kts 136°
2026-05-04 03:09 -21.83407 109.78343 37076 ft 551 kts 136°
2026-05-04 03:10 -21.88299 109.84713 37077 ft 552 kts 137°
2026-05-04 03:10 -21.93167 109.91055 37084 ft 553 kts 136°
2026-05-04 03:11 -21.98070 109.97451 37091 ft 554 kts 136°
2026-05-04 03:11 -22.03020 110.03810 37085 ft 552 kts 138°
2026-05-04 03:12 -22.08110 110.10024 37087 ft 552 kts 139°
2026-05-04 03:12 -22.13193 110.16246 37096 ft 553 kts 139°
2026-05-04 03:13 -22.18265 110.22494 37079 ft 554 kts 139°
2026-05-04 03:13 -22.23341 110.28763 37086 ft 554 kts 139°
2026-05-04 03:14 -22.28405 110.35028 37099 ft 554 kts 139°
2026-05-04 03:14 -22.33471 110.41302 37103 ft 554 kts 139°
2026-05-04 03:15 -22.38501 110.47539 37108 ft 554 kts 139°
2026-05-04 03:15 -22.43563 110.53824 37101 ft 554 kts 139°
2026-05-04 03:16 -22.48623 110.60113 37093 ft 554 kts 139°
2026-05-04 03:16 -22.53685 110.66412 37095 ft 554 kts 139°
2026-05-04 03:17 -22.58736 110.72705 37089 ft 554 kts 139°
2026-05-04 03:17 -22.63760 110.78973 37093 ft 553 kts 139°
2026-05-04 03:18 -22.68804 110.85274 37101 ft 554 kts 139°
2026-05-04 03:18 -22.73849 110.91583 37100 ft 553 kts 139°
2026-05-04 03:19 -22.78884 110.97886 37099 ft 553 kts 139°
2026-05-04 03:19 -22.83917 111.04196 37094 ft 553 kts 139°
2026-05-04 03:20 -22.88092 111.09435 37096 ft 553 kts 139°
2026-05-04 03:20 -22.93934 111.16777 37106 ft 553 kts 140°
2026-05-04 03:21 -22.98961 111.23102 37104 ft 553 kts 140°
2026-05-04 03:21 -23.03136 111.28361 37102 ft 553 kts 139°
2026-05-04 03:22 -23.08155 111.34691 37085 ft 553 kts 139°
2026-05-04 03:22 -23.13170 111.41023 37082 ft 553 kts 139°
2026-05-04 03:23 -23.18183 111.47361 37081 ft 553 kts 139°
2026-05-04 03:23 -23.23192 111.53701 37082 ft 553 kts 139°
2026-05-04 03:24 -23.28203 111.60053 37088 ft 553 kts 139°
2026-05-04 03:24 -23.33208 111.66404 37111 ft 553 kts 139°
2026-05-04 03:25 -23.38183 111.72726 37108 ft 553 kts 139°
2026-05-04 03:25 -23.43186 111.79091 37126 ft 553 kts 139°
2026-05-04 03:26 -23.48192 111.85469 37106 ft 553 kts 139°
2026-05-04 03:26 -23.53201 111.91858 37103 ft 553 kts 139°
2026-05-04 03:27 -23.58199 111.98242 37102 ft 553 kts 139°
2026-05-04 03:27 -23.63166 112.04593 37104 ft 553 kts 139°
2026-05-04 03:28 -23.68158 112.10985 37134 ft 553 kts 140°
2026-05-04 03:28 -23.73150 112.17386 37116 ft 553 kts 140°
2026-05-04 03:29 -23.78139 112.23791 37105 ft 553 kts 140°
2026-05-04 03:29 -23.83086 112.30149 37112 ft 552 kts 140°
2026-05-04 03:30 -23.88066 112.36559 37097 ft 552 kts 140°
2026-05-04 03:30 -23.93036 112.42965 37119 ft 552 kts 140°
2026-05-04 03:31 -23.97998 112.49368 37116 ft 552 kts 140°
2026-05-04 03:31 -24.02961 112.55781 37113 ft 551 kts 140°
2026-05-04 03:32 -24.07881 112.62147 37112 ft 551 kts 140°
2026-05-04 03:32 -24.12835 112.68564 37110 ft 551 kts 140°
2026-05-04 03:33 -24.17778 112.74976 37140 ft 551 kts 140°
2026-05-04 03:33 -24.22720 112.81396 37127 ft 550 kts 140°
2026-05-04 03:34 -24.27655 112.87815 37119 ft 550 kts 140°
2026-05-04 03:34 -24.32575 112.94223 37117 ft 549 kts 140°
2026-05-04 03:35 -24.37464 113.00597 37109 ft 549 kts 140°
2026-05-04 03:35 -24.42374 113.07009 37128 ft 549 kts 140°
2026-05-04 03:36 -24.47287 113.13434 37123 ft 548 kts 140°
2026-05-04 03:36 -24.52193 113.19858 37121 ft 548 kts 140°
2026-05-04 03:37 -24.57088 113.26275 37114 ft 547 kts 140°
2026-05-04 03:37 -24.61975 113.32691 37116 ft 547 kts 140°
2026-05-04 03:38 -24.66857 113.39108 37124 ft 547 kts 140°
2026-05-04 03:38 -24.71737 113.45531 37133 ft 547 kts 140°
2026-05-04 03:39 -24.76604 113.51947 37123 ft 546 kts 140°
2026-05-04 03:39 -24.81468 113.58363 37120 ft 546 kts 140°
2026-05-04 03:40 -24.86363 113.64744 37160 ft 542 kts 144°
2026-05-04 03:40 -24.89019 113.67567 37420 ft 532 kts 150°
2026-05-04 03:40 -24.91892 113.70069 37757 ft 521 kts 156°
2026-05-04 03:40 -24.94871 113.72323 38030 ft 519 kts 158°
2026-05-04 03:41 -24.97847 113.74582 38324 ft 520 kts 158°
2026-05-04 03:41 -25.00812 113.76844 38731 ft 518 kts 158°
2026-05-04 03:41 -25.03769 113.79101 39026 ft 516 kts 158°
2026-05-04 03:42 -25.09695 113.83615 39135 ft 515 kts 158°
2026-05-04 03:42 -25.15574 113.88100 39158 ft 514 kts 158°
2026-05-04 03:43 -25.21471 113.92597 39135 ft 514 kts 158°
2026-05-04 03:43 -25.27358 113.97095 39138 ft 514 kts 158°
2026-05-04 03:44 -25.33245 114.01599 39145 ft 515 kts 158°
2026-05-04 03:44 -25.39136 114.06111 39144 ft 515 kts 158°
2026-05-04 03:45 -25.45023 114.10626 39161 ft 515 kts 158°
2026-05-04 03:45 -25.50906 114.15144 39159 ft 514 kts 158°
2026-05-04 03:46 -25.56749 114.19635 39154 ft 514 kts 158°
2026-05-04 03:46 -25.62612 114.24148 39156 ft 513 kts 158°
2026-05-04 03:47 -25.68477 114.28668 39154 ft 513 kts 158°
2026-05-04 03:47 -25.74337 114.33189 39151 ft 512 kts 158°
2026-05-04 03:48 -25.80187 114.37707 39155 ft 512 kts 158°
2026-05-04 03:48 -25.86039 114.42235 39162 ft 512 kts 158°
2026-05-04 03:49 -25.91872 114.46752 39169 ft 511 kts 158°
2026-05-04 03:49 -25.97714 114.51281 39158 ft 511 kts 158°
2026-05-04 03:50 -26.03498 114.55772 39158 ft 511 kts 158°
2026-05-04 03:50 -26.09323 114.60299 39158 ft 510 kts 158°
2026-05-04 03:51 -26.15149 114.64833 39190 ft 510 kts 158°
2026-05-04 03:51 -26.20970 114.69368 39184 ft 510 kts 158°
2026-05-04 03:52 -26.26788 114.73907 39180 ft 510 kts 158°
2026-05-04 03:52 -26.32599 114.78447 39185 ft 510 kts 158°
2026-05-04 03:53 -26.38377 114.82966 39183 ft 510 kts 158°
2026-05-04 03:53 -26.44187 114.87515 39196 ft 510 kts 157°
2026-05-04 03:54 -26.49996 114.92071 39195 ft 510 kts 157°
2026-05-04 03:54 -26.55799 114.96627 39193 ft 509 kts 157°
2026-05-04 03:55 -26.61600 115.01186 39196 ft 509 kts 157°
2026-05-04 03:55 -26.67391 115.05742 39211 ft 509 kts 157°
2026-05-04 03:56 -26.73132 115.10268 39213 ft 508 kts 157°
2026-05-04 03:56 -26.78904 115.14823 39214 ft 507 kts 157°
2026-05-04 03:57 -26.84666 115.19374 39206 ft 507 kts 157°
2026-05-04 03:57 -26.90436 115.23937 39210 ft 506 kts 156°
2026-05-04 03:58 -26.99036 115.30753 39211 ft 506 kts 156°
2026-05-04 03:58 -27.04784 115.35313 39216 ft 506 kts 156°
2026-05-04 03:59 -27.10524 115.39875 39214 ft 505 kts 156°
2026-05-04 03:59 -27.16265 115.44439 39217 ft 506 kts 155°
2026-05-04 04:00 -27.22006 115.49015 39217 ft 505 kts 155°
2026-05-04 04:00 -27.27743 115.53591 39222 ft 505 kts 155°
2026-05-04 04:01 -27.33443 115.58142 39219 ft 506 kts 155°
2026-05-04 04:01 -27.39264 115.62494 39222 ft 496 kts 161°
2026-05-04 04:02 -27.45374 115.65997 39232 ft 492 kts 163°
2026-05-04 04:02 -27.51485 115.69504 39233 ft 493 kts 163°
2026-05-04 04:03 -27.57606 115.73021 39233 ft 493 kts 163°
2026-05-04 04:03 -27.63724 115.76533 39238 ft 494 kts 162°
2026-05-04 04:04 -27.69861 115.80064 39239 ft 494 kts 162°
2026-05-04 04:04 -27.75958 115.83575 39245 ft 495 kts 162°
2026-05-04 04:05 -27.82090 115.87110 39246 ft 495 kts 162°
2026-05-04 04:05 -27.88233 115.90654 39251 ft 496 kts 162°
2026-05-04 04:06 -27.94390 115.94214 39257 ft 496 kts 161°
2026-05-04 04:06 -28.00536 115.97771 39262 ft 496 kts 161°
2026-05-04 04:07 -28.06691 116.01339 39266 ft 496 kts 161°
2026-05-04 04:07 -28.12844 116.04909 39266 ft 496 kts 161°
2026-05-04 04:08 -28.18945 116.08454 39257 ft 496 kts 161°
2026-05-04 04:08 -28.25093 116.12030 39269 ft 496 kts 161°
2026-05-04 04:09 -28.30233 116.15024 39289 ft 495 kts 161°
2026-05-04 04:09 -28.36379 116.18606 39267 ft 496 kts 160°
2026-05-04 04:10 -28.42516 116.22191 39274 ft 496 kts 160°
2026-05-04 04:10 -28.48616 116.25758 39272 ft 496 kts 160°
2026-05-04 04:11 -28.54746 116.29347 39300 ft 495 kts 160°
2026-05-04 04:11 -28.60885 116.32944 39286 ft 495 kts 160°
2026-05-04 04:12 -28.67017 116.36545 39283 ft 495 kts 160°
2026-05-04 04:12 -28.73135 116.40141 39280 ft 495 kts 160°
2026-05-04 04:13 -28.79249 116.43739 39296 ft 495 kts 159°
2026-05-04 04:13 -28.85368 116.47345 39283 ft 495 kts 159°
2026-05-04 04:14 -28.91448 116.50934 39286 ft 495 kts 159°
2026-05-04 04:14 -28.97573 116.54553 39290 ft 495 kts 159°
2026-05-04 04:15 -29.03692 116.58173 39277 ft 495 kts 159°
2026-05-04 04:15 -29.09804 116.61794 39286 ft 495 kts 159°
2026-05-04 04:16 -29.16032 116.65018 39288 ft 485 kts 169°
2026-05-04 04:16 -29.22512 116.66534 39288 ft 473 kts 181°
2026-05-04 04:17 -29.29024 116.66558 39280 ft 467 kts 187°
2026-05-04 04:17 -29.35531 116.66395 39286 ft 468 kts 187°
2026-05-04 04:18 -29.42039 116.66232 39287 ft 468 kts 187°
2026-05-04 04:18 -29.48553 116.66060 39293 ft 468 kts 187°
2026-05-04 04:19 -29.55084 116.65884 39280 ft 470 kts 187°
2026-05-04 04:19 -29.61624 116.65710 39293 ft 470 kts 187°
2026-05-04 04:20 -29.68180 116.65534 39302 ft 471 kts 187°
2026-05-04 04:20 -29.74704 116.65360 39307 ft 472 kts 187°
2026-05-04 04:21 -29.81277 116.65182 39298 ft 474 kts 186°
2026-05-04 04:21 -29.87882 116.65005 39305 ft 475 kts 186°
2026-05-04 04:22 -29.94499 116.64827 39313 ft 475 kts 186°
2026-05-04 04:22 -30.01122 116.64649 39323 ft 476 kts 186°
2026-05-04 04:23 -30.07749 116.64469 39311 ft 478 kts 186°
2026-05-04 04:23 -30.14374 116.64290 39322 ft 479 kts 186°
2026-05-04 04:24 -30.21045 116.64110 39332 ft 479 kts 186°
2026-05-04 04:24 -30.27715 116.63930 39334 ft 480 kts 186°
2026-05-04 04:25 -30.34404 116.63747 39326 ft 481 kts 186°
2026-05-04 04:25 -30.41095 116.63566 39331 ft 481 kts 186°
2026-05-04 04:26 -30.47800 116.63384 39333 ft 481 kts 186°
2026-05-04 04:26 -30.54449 116.62798 39335 ft 476 kts 194°
2026-05-04 04:27 -30.60845 116.61027 39338 ft 470 kts 202°
2026-05-04 04:27 -30.67015 116.58619 39336 ft 470 kts 202°
2026-05-04 04:28 -30.73219 116.56231 39339 ft 470 kts 202°
2026-05-04 04:28 -30.79430 116.53819 39335 ft 470 kts 202°
2026-05-04 04:29 -30.85620 116.51405 39308 ft 467 kts 202°
2026-05-04 04:29 -30.88692 116.50207 39079 ft 463 kts 202°
2026-05-04 04:29 -30.91744 116.49014 38602 ft 461 kts 202°
2026-05-04 04:30 -30.94790 116.47822 38108 ft 463 kts 202°
2026-05-04 04:30 -30.97855 116.46621 37628 ft 467 kts 202°
2026-05-04 04:30 -31.00943 116.45410 37117 ft 470 kts 202°
2026-05-04 04:30 -31.04050 116.44191 36486 ft 473 kts 202°
2026-05-04 04:31 -31.07176 116.42965 35861 ft 476 kts 201°
2026-05-04 04:31 -31.10333 116.41726 35251 ft 480 kts 201°
2026-05-04 04:31 -31.13509 116.40480 34642 ft 483 kts 201°
2026-05-04 04:31 -31.16653 116.39245 34003 ft 481 kts 201°
2026-05-04 04:32 -31.19801 116.38009 33327 ft 474 kts 201°
2026-05-04 04:32 -31.22908 116.36789 32684 ft 468 kts 201°
2026-05-04 04:32 -31.25976 116.35581 32059 ft 463 kts 200°
2026-05-04 04:32 -31.29007 116.34387 31529 ft 457 kts 200°
2026-05-04 04:33 -31.32008 116.33204 30700 ft 453 kts 200°
2026-05-04 04:33 -31.34993 116.32025 29459 ft 455 kts 200°
2026-05-04 04:33 -31.37986 116.30843 28552 ft 447 kts 200°
2026-05-04 04:33 -31.40878 116.29663 27948 ft 433 kts 203°
2026-05-04 04:34 -31.43592 116.28189 27103 ft 426 kts 210°
2026-05-04 04:34 -31.46162 116.26510 26280 ft 420 kts 210°
2026-05-04 04:34 -31.48709 116.24871 25473 ft 416 kts 209°
2026-05-04 04:34 -31.51233 116.23258 24678 ft 411 kts 208°
2026-05-04 04:35 -31.53740 116.21657 23876 ft 408 kts 208°
2026-05-04 04:35 -31.56221 116.20072 23025 ft 403 kts 208°
2026-05-04 04:35 -31.58662 116.18510 22274 ft 397 kts 208°
2026-05-04 04:35 -31.61040 116.16987 21541 ft 392 kts 208°
2026-05-04 04:36 -31.63417 116.15462 20813 ft 387 kts 208°
2026-05-04 04:36 -31.65773 116.13950 20108 ft 384 kts 208°
2026-05-04 04:36 -31.68112 116.12449 19263 ft 383 kts 208°
2026-05-04 04:36 -31.70479 116.10928 18144 ft 390 kts 208°
2026-05-04 04:37 -31.77725 116.07282 16236 ft 367 kts 191°
2026-05-04 04:37 -31.80225 116.06761 15577 ft 362 kts 187°
2026-05-04 04:38 -31.82720 116.06665 14947 ft 357 kts 173°
2026-05-04 04:38 -31.85132 116.07259 14305 ft 353 kts 160°
2026-05-04 04:38 -31.87384 116.08380 13631 ft 349 kts 155°
2026-05-04 04:38 -31.89589 116.09519 13003 ft 344 kts 155°
2026-05-04 04:39 -31.91774 116.10633 12378 ft 340 kts 155°
2026-05-04 04:39 -31.93941 116.11734 11755 ft 338 kts 155°
2026-05-04 04:39 -31.96089 116.12827 11133 ft 335 kts 155°
2026-05-04 04:39 -31.98226 116.13885 10512 ft 332 kts 157°
2026-05-04 04:40 -32.00369 116.14845 10050 ft 325 kts 158°
2026-05-04 04:40 -32.02441 116.15741 9864 ft 309 kts 158°
2026-05-04 04:40 -32.04407 116.16591 9720 ft 293 kts 158°
2026-05-04 04:40 -32.06294 116.17325 9518 ft 281 kts 166°
2026-05-04 04:41 -32.08244 116.17497 9054 ft 284 kts 182°
2026-05-04 04:41 -32.10176 116.17051 8562 ft 287 kts 192°
2026-05-04 04:41 -32.12083 116.16446 8302 ft 283 kts 192°
2026-05-04 04:41 -32.14005 116.16018 8015 ft 280 kts 185°
2026-05-04 04:42 -32.15934 116.15603 7575 ft 284 kts 190°
2026-05-04 04:42 -32.17798 116.14840 7083 ft 288 kts 209°
2026-05-04 04:42 -32.19261 116.13220 6661 ft 291 kts 234°
2026-05-04 04:42 -32.19996 116.11011 6270 ft 291 kts 261°
2026-05-04 04:43 -32.20060 116.08645 5944 ft 286 kts 271°
2026-05-04 04:43 -32.19973 116.06345 5750 ft 275 kts 272°
2026-05-04 04:43 -32.19902 116.04076 5255 ft 277 kts 271°
2026-05-04 04:43 -32.19660 116.01836 5002 ft 271 kts 283°
2026-05-04 04:44 -32.19159 115.99732 4815 ft 260 kts 285°
2026-05-04 04:44 -32.18706 115.97731 4525 ft 253 kts 284°
2026-05-04 04:44 -32.18274 115.95728 4195 ft 251 kts 284°
2026-05-04 04:44 -32.17848 115.93739 4001 ft 250 kts 284°
2026-05-04 04:45 -32.17372 115.91770 3954 ft 249 kts 295°
2026-05-04 04:45 -32.16320 115.90171 3963 ft 248 kts 325°
2026-05-04 04:45 -32.14759 115.89385 3864 ft 244 kts 354°
2026-05-04 04:47 -32.05667 115.93098 2054 ft 221 kts 15°
2026-05-04 04:47 -32.04211 115.93529 1791 ft 214 kts 16°
2026-05-04 04:47 -32.02786 115.93938 1484 ft 197 kts 16°
2026-05-04 04:47 -32.01570 115.94295 1258 ft 164 kts 17°
2026-05-04 04:48 -32.00556 115.94593 1033 ft 144 kts 16°
2026-05-04 04:49 -31.96797 115.95693 276 ft 136 kts 14°
2026-05-04 04:49 -31.95887 115.95950 101 ft 134 kts 15°
2026-05-04 04:49 -31.95091 115.96192 68 ft 96 kts 15°
2026-05-04 04:49 -31.94554 115.96352 68 ft 66 kts 14°
2026-05-04 04:50 -31.94201 115.96454 68 ft 24 kts 14°
2026-05-04 04:50 -31.94119 115.96521 68 ft 14 kts 56°
2026-05-04 04:50 -31.94071 115.96632 67 ft 16 kts 62°
2026-05-04 04:50 -31.94016 115.96739 66 ft 12 kts 58°
2026-05-04 04:51 -31.93973 115.96821 63 ft 11 kts 58°
2026-05-04 04:51 -31.93927 115.96903 65 ft 13 kts 56°
2026-05-04 04:51 -31.93926 115.96998 71 ft 13 kts 103°
2026-05-04 04:51 -31.93939 115.97066 69 ft 8 kts 104°
2026-05-04 04:52 -31.93952 115.97121 67 ft 6 kts 118°
2026-05-04 04:52 -31.93973 115.97136 68 ft 5 kts 179°
2026-05-04 04:52 -31.94024 115.97128 67 ft 8 kts 195°
2026-05-04 04:52 -31.94046 115.97122 67 ft 2 kts 193°
2026-05-04 04:53 -31.94048 115.97121 67 ft 2 kts 193°
2026-05-04 04:53 -31.94051 115.97120 64 ft 0 kts 193°